Starlink 6041

operational
NORAD ID: 56478 Int'l Des: 2023-064 Owner: SPXS Country: US Constellation: starlink
LEOCIRCULAR

About Starlink 6041

Description loading...

Live Position

Loading 3D Globe...

Upcoming Passes

Altitude History

Altitude vs Time

uPlot chart will show altitude changes over time

Two-Line Element Set

1 56478U 23064AG 26062.17576895 -.00008279 00000-0 -68615-3 0 9996
2 56478 70.0005 140.8819 0002781 273.1556 86.9285 14.98373757154767
Epoch: Mar 3, 2026 • Age: 12 hours

Current Status

Altitude 583.6 km
Velocity 7.57 km/s
Sub-Earth Point -35.64°S, 142.84°E
Launch Date May 10, 2023
Age 2.8 years
Type internet

Technical Details

Classification Payload
Mass 305.00 kg
Dry Mass 290.00 kg
Total Mass 305.00 kg
Length 0.20 m
Diameter 2.80 m
Span 9.00 m
Shape Box + pan
Manufacturer SPXS
Bus Type Starlink
Phase Status In Orbit
Owner/State SPXS/US

Large Constellations

Loading constellations...